Location: Beeston
(52.7000°N, 0.8167°E)
Time: 12:33:10
(UTC+00:00)

NOSS 3-4 (A) - Pass Details

Date: 15 May 2026
Orbit: 769 x 1442 km, 63.4° (Epoch: 10 January)

Event Time Altitude Azimuth Distance (km) Brightness Sun altitude
Rises 20:38:28 0° 312° (NW) 3,600 9.2 -6.8°
Reaches altitude 10° 20:40:51 10° 313° (NW) 2,735 7.7 -7.1°
Maximum altitude 20:47:21 85° 42° (NE) 1,114 3.8 -7.8°
Drops below altitude 10° 20:55:05 10° 133° (SE) 3,220 5.5 -8.6°
Enters shadow 20:55:06 10° 133° (SE) 3,224 5.5 -8.6°
